Sawtelle Peak

Sawtelle summit stationLocated on Sawtelle Peak in the Centennials. Use the Sawtelle SNOdar or the nearest SNOTEL station for snow depth data: White Elephant. The data on this page is also available to view at dataGarrison.com.

 

Elevation
9885ft
Jump to table bottom
Date Time Temperature
deg F
RH, % Wind Speed Wind Gust Wind Direction Pressure Light
04/22/24 10:00 25.0 43 6 37 W - 292 702.280 1,059,455
04/22/24 9:00 23.2 42 7 19 NW - 293 702.300 978,096
04/22/24 8:00 23.2 32 7 31 NW - 319 702.360 831,650
04/22/24 7:00 18.4 63 5 20 NW - 321 702.280 563,166
04/22/24 6:00 17.4 72 4 24 N - 344 701.940 68,403
04/22/24 5:00 17.5 76 6 29 NW - 320 701.900 3
04/22/24 4:00 18.9 73 7 32 NW - 317 702.100 0
04/22/24 3:00 20.0 73 8 31 NW - 307 702.480 1
04/22/24 2:00 23.2 75 10 23 NW - 299 702.820 1
04/22/24 1:00 22.1 78 13 26 NW - 306 702.920 1
04/21/24 24:00 25.0 83 12 27 NW - 309 702.600 1
04/21/24 23:00 26.3 81 9 25 NW - 323 702.380 1
04/21/24 22:00 28.1 78 9 25 NW - 319 702.860 1
04/21/24 21:00 32.4 49 12 45 NW - 306 703.100 1
04/21/24 20:00 35.7 53 27 47 W - 286 702.840 346
04/21/24 19:00 36.3 59 34 52 W - 277 702.060 64,335
04/21/24 18:00 37.1 61 34 54 W - 270 702.840 113,150
04/21/24 17:00 38.2 58 39 55 W - 265 702.680 298,750
04/21/24 16:00 37.7 61 36 53 W - 267 703.000 361,803
04/21/24 15:00 37.4 64 37 51 W - 264 704.280 705,544
04/21/24 14:00 34.3 65 37 49 W - 263 704.380 518,419
04/21/24 13:00 33.8 60 37 50 W - 261 704.420 847,922
04/21/24 12:00 32.1 56 38 50 W - 265 705.060 856,058
04/21/24 11:00 31.6 57 32 47 W - 270 705.720 1,010,640
04/21/24 10:00 30.8 56 27 39 W - 267 706.320 1,039,115
04/21/24 9:00 30.2 57 33 44 W - 267 706.620 530,623
04/21/24 8:00 29.1 54 33 43 W - 265 706.280 312,988
04/21/24 7:00 29.0 48 32 42 W - 268 706.520 177,729
04/21/24 6:00 28.8 41 33 41 W - 268 706.580 12,405
04/21/24 5:00 27.9 42 30 42 W - 268 706.660 1
04/21/24 4:00 28.1 44 27 36 W - 268 707.140 0
04/21/24 3:00 27.7 43 28 37 W - 261 707.100 0
04/21/24 2:00 27.8 44 29 37 W - 258 707.200 1
04/21/24 1:00 27.3 44 27 33 W - 253 707.600 1
04/20/24 24:00 27.4 46 26 32 W - 248 707.460 1
04/20/24 23:00 27.7 47 24 29 SW - 239 707.540 1
04/20/24 22:00 27.7 47 15 24 W - 264 707.880 1
04/20/24 21:00 28.2 47 10 14 W - 284 708.140 1
04/20/24 20:00 28.2 43 9 15 W - 268 707.740 328
04/20/24 19:00 29.2 53 6 21 NW - 295 707.660 83,657
04/20/24 18:00 31.5 53 4 24 NW - 326 707.800 231,629
04/20/24 17:00 31.5 50 5 21 NW - 298 707.740 396,380
04/20/24 16:00 31.4 44 4 11 NW - 314 707.620 571,302
04/20/24 15:00 33.2 38 6 20 NW - 299 707.560 725,884
04/20/24 14:00 29.7 38 5 15 W - 268 707.480 876,398
04/20/24 13:00 27.8 43 5 20 W - 279 707.180 998,436
04/20/24 12:00 27.7 53 4 16 NW - 295 707.000 1,083,863
04/20/24 11:00 27.2 51 6 14 NW - 295 706.580 1,108,270
04/20/24 10:00 23.3 55 12 18 W - 277 706.020 1,100,134
04/20/24 9:00 21.9 54 12 17 W - 284 705.620 1,014,708